Regional Weather Roundup
Issued by NWS Glasgow, MT

Home | Current Version | Previous Version | Text Only | Print | Product List | Glossary On
Versions: 1 2 3 4 5 6 7 8 9 10 11 12 13 14 15 16 17 18 19 20 21 22 23 24 25 26 27
000
ASUS45 KGGW 230715
RWRGGW
HOURLY WEATHER ROUNDUP FOR NORTHEAST MONTANA
NATIONAL WEATHER SERVICE GLASGOW MONTANA
100 AM MDT WED APR 23 2014

NOTE: "FAIR" INDICATES FEW OR NO CLOUDS BELOW 12,000 FEET WITH NO
SIGNIFICANT WEATHER AND/OR OBSTRUCTIONS TO VISISBILITY.

NORTHEAST MONTANA


CITY           SKY/WX    TMP DP  RH WIND       PRES   REMARKS
GLASGOW        PTCLDY    56  32  40 E29G36    29.38F
PLENTYWOOD       N/A     52  32  46 E10         N/A
WOLF POINT     MOCLDY    56  31  38 E16       29.45F
JORDAN           N/A     57  35  43 E14       29.33F
WINNETT          N/A     50  45  83 W20G29      N/A
SIDNEY         CLOUDY    57  30  35 E21G29    29.52F
GLENDIVE       CLOUDY    55  30  38 E17G23    29.48R

FORT PECK REPORTS


CITY           SKY/WX    TMP DP  RH WIND       PRES   REMARKS
FORT PECK        N/A     54  32  43 E29G37      N/A
THE PINES        N/A     54  33  45 E9          N/A

SOUTHEAST MONTANA


CITY           SKY/WX    TMP DP  RH WIND       PRES   REMARKS
BILLINGS       CLOUDY    54  42  64 NW35G43   29.38R
MILES CITY     CLOUDY    56  37  49 NE9       29.35F
BAKER          CLOUDY    53  33  46 E15       29.45F
LIVINGSTON     CLOUDY    41 N/A N/A W25       29.55S

CENTRAL MONTANA


CITY           SKY/WX    TMP DP  RH WIND       PRES   REMARKS
HAVRE          HVY RAIN  47  45  93 W10       29.48R FOG
LEWISTOWN      RAIN      41  40  96 NW14G21   29.51R FOG
GREAT FALLS    LGT RAIN  42  42 100 SW6       29.57R
CUT BANK       CLOUDY    41  36  82 W20       29.52R
HELENA         CLOUDY    41  32  70 W17G24    29.64R
BUTTE          FLURRIES  32  28  85 NW17G24   29.68R
BOZEMAN        CLOUDY    39  34  82 W14       29.64R

WESTERN MONTANA


CITY           SKY/WX    TMP DP  RH WIND       PRES   REMARKS
MISSOULA       CLOUDY    40  31  70 W8        29.78S
KALISPELL      NOT AVBL

NORTH DAKOTA


CITY           SKY/WX    TMP DP  RH WIND       PRES   REMARKS
WILLISTON      CLOUDY    54  32  43 E23G38    29.56F
DICKINSON      LGT RAIN  53  33  46 SE22G32   29.55F
MINOT          PTCLDY    47  33  58 E16G25    29.73F
BISMARCK       CLOUDY    51  42  71 SE22G31   29.70F

SOUTHERN SASKATCHEWAN


CITY           SKY/WX    TMP DP  RH WIND       PRES   REMARKS
REGINA         PTCLDY    48  34  57 E24G37    29.65F
ESTEVAN        CLOUDY    48  36  61 SE17G23   29.69F
SWIFT CURRENT  CLOUDY    54  32  43 SE23G32   29.43F




USA.gov is the U.S. government's official web portal to all federal, state and local government web resources and services.